Flag for Anguilla Weather past 2 weeks in The Valley, Anguilla

Now
81 °F

Passing clouds.


Feels Like: 85 °F
Forecast: 77 / 84 °F
Wind: 7 mph from Southeast

Location: Juliana Airport - Saint Maarten


UV Index: 10 (Very high)

Visibility: N/A


Pressure: 30.01 "Hg

Humidity: 79%

Dew point: 73 °F

Location of The ValleyLocation

Historic Weather in The Valley

°F

The Valley temperature yesterday

Maximum temperature yesterday: 84 °F (at 2:00 PM)
Minimum temperature yesterday: 77 °F (at 5:00 AM)
Average temperature yesterday: 80 °F

Past Weeks' High & Low Weather Summary

 TemperatureHumidityPressure
High90 °F (Apr 19, 4:00 AM)89% (Apr 11, 4:00 AM)30.15 "Hg (Apr 11, 4:00 AM)
Low64 °F (Apr 13, 2:00 PM)48% (Apr 11, 3:00 PM)29.89 "Hg (Apr 15, 4:00 PM)
Average79 °F71%30.02 "Hg
* Reported Apr 8 10:00 PM — Apr 23 10:00 PM, The Valley, Weather by CustomWeather, © 2014

Note: Actual official high and low records may vary slightly from our data, if they occured in-between our weather recording intervals... More about our weather records

Advertising

Historic Weather Conditions — Data for Previous 24 hours

 ConditionsComfort  
Time TempWeatherWind HumidityBarometerVisibility
10:00 PM
Apr 23
81 °FPassing clouds.6 mph79%30.01 "HgN/A
9:00 PM81 °FPassing clouds.5 mph79%29.98 "HgN/A
8:00 PM81 °FPassing clouds.8 mph79%29.98 "HgN/A
7:00 PM81 °FPassing clouds.8 mph79%29.95 "HgN/A
6:00 PM81 °FPassing clouds.7 mph79%29.95 "HgN/A
5:00 PM82 °FPassing clouds.6 mph74%29.95 "HgN/A
4:00 PM84 °FPassing clouds.6 mph70%29.95 "HgN/A
3:00 PM84 °FPassing clouds.6 mph70%29.95 "HgN/A
2:00 PM84 °FPassing clouds.7 mph70%29.95 "HgN/A
1:00 PM84 °FPassing clouds.8 mph70%29.98 "HgN/A
12:00 PM82 °FPassing clouds.9 mph74%29.98 "HgN/A
11:00 AM84 °FPassing clouds.7 mph70%30.01 "HgN/A
10:00 AM82 °FPassing clouds.7 mph74%30.01 "HgN/A
9:00 AM82 °FPassing clouds.3 mph74%30.01 "HgN/A
8:00 AM81 °FPassing clouds.8 mph79%30.01 "HgN/A
7:00 AM81 °FScattered clouds.8 mph79%29.98 "HgN/A
6:00 AM79 °FPassing clouds.10 mph84%29.98 "HgN/A
5:00 AM79 °FPassing clouds.9 mph84%29.95 "HgN/A
4:00 AM79 °FWarm.9 mph84%29.92 "HgN/A
3:00 AM79 °FWarm.10 mph84%29.92 "HgN/A
2:00 AM79 °FPassing clouds.8 mph84%29.92 "HgN/A
1:00 AM79 °FPassing clouds.6 mph84%29.95 "HgN/A
12:00 AM79 °FPassing clouds.3 mph84%29.98 "HgN/A
11:00 PM
Apr 22
79 °FPassing clouds.6 mph84%29.98 "HgN/A
Weather by CustomWeather, © 2014

See weather overview